Weather History for GMAD - October, 2012

Change the Weather History Date:

Tuesday, October 2, 2012

  Actual Average Record
Temperature  
Mean Temperature 70 °F -  
Max Temperature 80 °F - - ()
Min Temperature 61 °F - - ()
Cooling Degree Days 6    
Growing Degree Days 20 (Base 50)    
Moisture  
Dew Point 63 °F    
Average Humidity 78    
Maximum Humidity 94    
Minimum Humidity 54    
Precipitation  
Precipitation 0.00 in - - ()
Sea Level Pressure  
Sea Level Pressure 30.04 in    
Wind  
Wind Speed 3 mph ()    
Max Wind Speed 14 mph    
Max Gust Speed -    
Visibility 4.6 miles    
Events      
T = Trace of Precipitation, MM = Missing Value Source: Averaged Metar Reports

Daily Weather History Graph

Daily Weather History Graph

Search for Another Location

Airport or City:

Trip Planner

Search our weather history database for the weather conditions in past years. The results will help you decide how hot, cold, wet, or windy it might be!

Date:

Astronomy

Oct. 02, 2012 Rise Set
Actual Time 6:31 AM WET 6:21 PM WET
Civil Twilight 6:07 AM WET 6:45 PM WET
Nautical Twilight 5:40 AM WET 7:13 PM WET
Astronomical Twilight 5:12 AM WET 7:40 PM WET
Moon 7:40 PM WET (10/2) 8:33 AM WET (10/2)
Length of Visible Light 12h 37m
Length of Day
11h 49m
Waning Gibbous, 95% of the Moon is Illuminated
Oct 2
Waning Gibbous
Oct 8
Last Quarter
Oct 15
New
Oct 22
First Quarter
Oct 29
Full

Hourly Weather History & Observations

Time (WET) Temp. Heat Index Dew Point Humidity Pressure Visibility Wind Dir Wind Speed Gust Speed Precip Events Conditions
12:00 AM 67 °F - 63 °F 83% 30.06 in 6 mi ESE 2.3 mph - -  
12:00 AM 66.2 °F - 62.6 °F 88% 30.06 in - ESE 2.3 mph - N/A   Clear
1:00 AM 66.2 °F - 62.6 °F 88% 30.04 in - East 2.3 mph - N/A   Clear
2:00 AM 64.4 °F - 62.6 °F 94% 30.04 in - NNW 2.3 mph - N/A   Clear
3:00 AM 64 °F - 62 °F 89% 30.04 in 6 mi Calm Calm - -  
3:00 AM 64.4 °F - 60.8 °F 88% 30.04 in - Calm Calm - N/A   Clear
4:00 AM 64.4 °F - 62.6 °F 94% 30.04 in - Calm Calm - N/A   Clear
5:00 AM 64.4 °F - 62.6 °F 94% 30.04 in - WSW 3.5 mph - N/A   Clear
6:00 AM 65 °F - 63 °F 91% 30.04 in 4 mi WSW 3.5 mph - -   Mostly Cloudy
6:00 AM 64.4 °F - 62.6 °F 94% 30.04 in 3.7 mi WSW 3.5 mph - N/A   Mostly Cloudy
7:00 AM 66.2 °F - 64.4 °F 94% 30.04 in 3.7 mi WSW 3.5 mph - N/A   Mostly Cloudy
8:00 AM 68.0 °F - 66.2 °F 94% 30.06 in 3.1 mi Variable 2.3 mph - N/A   Mostly Cloudy
9:00 AM 69.8 °F - 64.4 °F 83% 30.06 in 3.1 mi Variable 2.3 mph - N/A   Mostly Cloudy
10:00 AM 71.6 °F - 64.4 °F 78% 30.09 in 3.7 mi Calm Calm - N/A   Mostly Cloudy
11:00 AM 75.2 °F - 64.4 °F 69% 30.06 in 3.7 mi East 3.5 mph - N/A   Mostly Cloudy
12:00 PM 78 °F - 65 °F 55% 30.06 in 5 mi SSW 3.5 mph - -   Partly Cloudy
12:00 PM 78.8 °F - 64.4 °F 61% 30.06 in 5.0 mi SSW 3.5 mph - N/A   Scattered Clouds
1:00 PM 80.6 °F 82.3 °F 64.4 °F 58% 30.04 in 5.0 mi SW 3.5 mph - N/A   Partly Cloudy
2:00 PM 78.8 °F - 64.4 °F 61% 30.01 in - West 11.5 mph - N/A   Clear
3:00 PM 78 °F - 64 °F 54% 30.00 in 6 mi West 11.5 mph - -  
3:00 PM 78.8 °F - 64.4 °F 61% 30.01 in - West 11.5 mph - N/A   Clear
4:00 PM 75.2 °F - 64.4 °F 69% 30.01 in - West 13.8 mph - N/A   Clear
5:00 PM 75.2 °F - 62.6 °F 65% 30.01 in - West 13.8 mph - N/A   Clear
6:00 PM 74 °F - 63 °F 60% 30.01 in 6 mi WSW 9.2 mph - -  
6:00 PM 73.4 °F - 62.6 °F 69% 30.01 in - WSW 9.2 mph - N/A   Clear
7:00 PM 71.6 °F - 62.6 °F 73% 30.01 in - SW 5.8 mph - N/A   Clear
8:00 PM 69.8 °F - 62.6 °F 78% 30.04 in 5.0 mi WSW 3.5 mph - N/A   Partly Cloudy
9:00 PM 68 °F - 63 °F 80% 30.06 in 5 mi Calm Calm - -  
10:00 PM 68.0 °F - 62.6 °F 83% 30.06 in 5.0 mi NNE 4.6 mph - N/A   Unknown
11:00 PM 66.2 °F - 62.6 °F 88% 30.06 in 3.7 mi ENE 2.3 mph - N/A   Unknown